Lid_Strength_Index
1 0 0 0 0 0 0 0 1 1 1 2 2 3 3 3 3 3 2 1 -1 -2 -2 -2 -2 -2 -2 -2 -2 -2 -2 -2 -2 -2 -2 -2 -2 -2 -2 -2 -2 -2 -2
1 0 0 0 1 0 0 0 1 2 2 2 2 3 3 3 4 4 2 1 -0 -2 -2 -2 -2 -2 -2 -2 -2 -2 -2 -2 -2 -2 -2 -2 -2 -2 -2 -2 -2 -2 -2
3 2 0 0 0 0 0 1 1 1 2 3 3 3 3 4 4 4 4 3 1 -0 -1 -2 -2 -2 -2 -2 -2 -2 -2 -2 -2 -2 -2 -2 -2 -2 -2 -2 -2 -2 -2
2 2 2 0 -0 0 0 1 2 2 3 3 3 3 3 4 4 4 4 4 4 2 0 -1 -2 -2 -2 -2 -2 -2 -2 -2 -2 -2 -2 -1 -2 -2 -2 -2 -2 -2 -2
0 1 1 0 0 0 0 1 2 2 3 3 3 4 4 4 5 4 4 4 4 4 4 2 1 0 -1 -2 -2 -2 -2 -2 -2 -2 -2 -1 -1 -2 -2 -2 -2 -2 -2
1 1 0 0 0 1 1 1 1 2 2 3 3 4 6 5 5 5 5 4 4 4 4 4 3 3 2 -0 -1 -1 -2 -2 -2 -2 -2 -2 -1 -1 -2 -2 -2 -2 -2
1 0 0 0 0 1 1 1 1 2 3 3 4 5 6 6 6 5 5 5 6 5 4 4 4 4 3 1 -0 -1 -1 -1 -2 -2 -2 -2 -2 -1 -1 -1 -1 -1 -1
1 0 1 1 1 1 1 1 1 2 2 3 5 5 7 7 6 5 5 5 5 5 5 4 4 3 3 3 3 0 -1 -1 -2 -2 -2 -2 -2 -2 -2 -2 -1 -1 -2
1 1 1 1 1 1 1 1 1 2 3 2 2 4 7 8 7 6 6 5 5 5 4 4 4 3 3 3 3 2 1 1 -1 -2 -2 -2 -2 -2 -2 -2 -1 -1 -1
0 1 1 1 1 1 1 1 1 1 2 3 3 4 5 5 7 7 6 5 5 5 5 5 4 4 3 3 4 5 4 3 2 0 -1 -1 -2 -2 -1 -1 -1 -1 -1
0 0 1 1 1 1 1 1 1 1 1 2 3 4 5 5 5 6 8 7 6 5 5 4 4 4 3 3 3 4 4 3 3 2 1 0 -1 -1 -1 -1 -1 -1 -1
1 1 1 1 1 1 1 1 1 1 1 2 2 3 4 5 5 6 7 6 6 6 5 5 5 4 4 3 4 6 5 3 2 2 3 2 1 -0 -1 -1 -1 -1 -1
1 2 1 1 1 1 1 1 1 1 1 2 2 3 2 2 2 4 4 5 6 5 5 6 7 6 6 6 6 8 7 5 3 3 4 3 2 2 1 0 0 0 -0
2 2 2 2 2 1 2 1 1 1 1 1 2 2 2 2 2 3 3 4 6 5 6 7 11 11 10 9 9 9 6 6 4 4 4 4 4 3 2 2 1 1 1
1 3 2 2 1 3 3 2 1 1 1 1 2 2 2 2 3 2 3 3 4 7 6 9 10 12 12 11 11 8 7 9 6 5 5 5 5 4 4 3 2 2 3
3 3 5 4 4 4 3 3 2 1 2 2 2 2 3 3 2 2 2 2 3 4 6 11 14 13 13 12 12 10 10 10 9 8 7 7 6 5 5 5 5 4 4
5 4 5 5 4 5 5 4 4 2 3 4 4 4 4 5 4 4 4 3 3 3 5 16 14 14 15 14 14 13 13 11 10 9 8 8 8 7 7 6 6 6 6
6 6 6 6 6 5 6 6 7 6 7 8 9 8 9 9 9 9 9 9 8 9 10 15 16 16 16 16 15 15 14 13 11 10 9 9 9 9 9 9 9 8 8
7 7 7 7 7 7 8 8 9 9 10 11 10 11 11 11 11 12 11 11 11 11 12 14 16 16 16 15 16 16 15 15 14 12 10 10 10 10 10 10 10 10 10
8 8 9 9 9 8 9 10 11 13 13 14 13 12 12 12 12 12 13 12 12 13 14 14 15 16 16 15 16 16 16 16 16 15 14 13 12 12 11 12 12 12 11
9 9 10 10 10 9 10 11 12 13 14 14 14 15 14 14 14 13 12 13 13 14 14 15 16 15 16 15 15 15 16 17 17 16 17 17 17 17 17 15 14 13 12
10 10 11 11 11 12 10 10 13 14 14 15 16 16 15 15 14 14 13 12 12 13 14 14 15 15 15 15 15 16 17 17 18 17 18 18 18 19 18 17 14 13 13
11 11 11 12 12 13 13 13 14 14 15 16 16 17 17 16 16 16 15 15 15 13 13 14 15 15 15 14 14 15 15 16 17 18 17 19 18 19 18 17 14 12 12
12 12 12 12 14 13 13 14 15 16 17 17 17 16 17 17 16 16 16 16 16 16 17 16 17 17 16 15 15 15 16 18 18 18 17 19 20 21 19 17 13 12 11
12 13 13 13 14 14 14 14 15 16 17 17 17 16 16 16 14 15 17 18 18 17 14 14 14 14 14 14 15 16 17 17 19 21 20 21 22 21 19 17 14 10 10
14 13 13 14 14 15 14 14 15 16 17 16 15 15 15 16 15 15 17 18 19 19 18 18 18 18 18 18 17 18 19 22 24 24 21 22 22 21 22 17 15 14 12